Showing default

KUIPER-00205, 67774

Orbit data source: Space-Track

KUIPER-00205, 67774 is a payload satellite owned by Kuiper Systems (US) in LEO that was launched on Thu, 12 Feb 2026 UTC via an ARIANE 64 launch vehicle from the French Guiana (FRGUI). Payload-class satellites include a variety of spacecraft equipped with specific instruments for various scientific and technological missions. These include communications satellites like Starlink; space stations such as the ISS; scientific satellites like the Hubble; Earth observation satellites from companies like Planet Labs, Umbra, and HawkEye 360; GPS; miniature CubeSats for education and research; and military/defense satellites.

Loading next visibility...
Identifier
67774, 2026-030L
Orbit
LEO
Country
Flag of USUS
Related business
Manufacturer
Kuiper Systems
Mission
Operational Commercial Communications
Bus & Motor
KUIPER, Unknown motor
Mass
~490 kg wet, ~490 kg dry
Launch date (UTC)
2026-02-12 (4 months ago)
Launch vehicle
ARIANE 64
Launch site
French Guiana (FRGUI)
Object type
Payload
Rocket body
Debris
Shape & HBR
Box + 2 Pan, 3.4 m
Radar Cross Section
2.326 m², Large (>1 m²)

Expand to show TLE details & history
Last TLE update: 10 hours ago

TLE from 10 hours ago
0 KUIPER-00205
1 67774U 26030L   26171.41668980 -.00072215  00000-0 -91201-2 0  9995
2 67774  51.8997  88.7967 0000773 127.3095 180.7977 14.81837167  4336
Epoch: 2026-06-20T10:00Z
TLE epoch observation values (Epoch: 2026-06-20T10:00:01.998Z)
Latitude
-38.45584°
Longitude
-8.1118°
Altitude
636.481 km
Speed
7.54 km/s
True Right ascension
03h 22m 06s
True Declination
-38° 17' 08"
Sunlit
Object was in daylight at epoch
Visualization orbit readout
Latitude
Unknown
Longitude
Unknown
Altitude
Unknown
Speed
Unknown
Apparent Right ascension
Unknown
Apparent Declination
Unknown
Sunlit
N/A
Visualization observer readout
Local Sidereal Time
07:20:42
Azimuth
Unknown
Elevation
Unknown
Doppler factor
Unknown
Orbital elements
Apogee altitude
624.524 km
Perigee altitude
623.441 km
Semi-major axis
7,002.12 km
Eccentricity
0.00008
Inclination
51.8997°
RAAN
88.7967°
Arg. of periapsis
127.3095°
True anomaly
180.79758°
Mean anomaly
180.7977°
Eccentric anomaly
180.79764°
Mean motion
3.70424 °/min
Orbital period
97.19 mins
BSTAR
-0.0091201
Loading maneuver chart data...
Computing Atmospheric mass density...
Loading historical data...
Loading historical data...
Loading historical data...
Loading historical data...
Loading historical data...
Loading historical data...
Loading historical data...

Documentation

Showing up to 5 results
|